OE3PDB-4 Weather Reports


Display with metric or nautical units.
time (UTC)temp
F
wind
direction
speed
MPH
gust
MPH
rain 1hr
in
rain 24hr
in
rain mn
in
humidity
%
barometer
mb
20260905215025 69 22 0.0 0.0 0.00 0.02 0.00 56 1021.6
20260905214025 69 67 0.0 0.0 0.00 0.02 0.00 56 1021.6
20260905213025 69 315 0.0 1.0 0.00 0.02 0.00 56 1021.5
20260905212025 69 247 0.0 0.0 0.00 0.02 0.00 56 1021.4
20260905211025 69 292 0.0 0.0 0.00 0.02 0.00 56 1021.3
20260905210025 69 225 0.0 0.0 0.00 0.02 0.00 55 1021.2
20260905205025 70 315 0.0 0.0 0.00 0.02 0.00 55 1021.2
20260905204025 70 337 0.0 3.0 0.00 0.02 0.00 55 1021.2
20260905203025 70 315 0.0 4.0 0.00 0.02 0.00 55 1021.1
20260905202025 70 315 0.0 0.0 0.00 0.02 0.00 55 1021.1
20260905201025 70 337 0.0 0.0 0.00 0.02 0.00 55 1021.1
20260905200025 70 315 0.0 0.0 0.00 0.02 0.00 55 1020.9
20260905195025 70 337 0.0 0.0 0.00 0.02 0.00 55 1020.9
20260905194025 70 180 0.0 0.0 0.00 0.02 0.00 55 1020.8
20260905193025 70 337 0.0 1.0 0.00 0.02 0.00 55 1020.7
20260905192025 70 315 2.0 2.0 0.00 0.02 0.00 55 1020.8
20260905191025 71 337 0.0 0.0 0.00 0.02 0.00 55 1020.8
20260905190025 71 315 0.0 0.0 0.00 0.02 0.00 54 1020.7
20260905185025 71 315 0.0 0.0 0.00 0.02 0.00 54 1020.5
20260905184025 71 315 0.0 2.0 0.00 0.02 0.00 53 1020.3
20260905183025 71 337 0.0 0.0 0.00 0.02 0.00 53 1020.2
20260905182025 71 247 0.0 0.0 0.00 0.02 0.00 53 1020.2
20260905181025 71 337 0.0 0.0 0.00 0.02 0.00 52 1020.1
20260905180025 71 337 0.0 0.0 0.00 0.02 0.00 52 1020.0
20260905175025 72 315 0.0 0.0 0.00 0.02 0.00 51 1019.8
20260905174025 72 315 0.0 0.0 0.00 0.02 0.00 51 1019.6
20260905173025 73 337 0.0 0.0 0.00 0.02 0.00 50 1019.5
20260905172025 73 337 0.0 0.0 0.00 0.02 0.00 49 1019.4
20260905171025 73 315 0.0 0.0 0.00 0.02 0.00 49 1019.5
20260905170025 73 315 2.0 2.0 0.00 0.02 0.00 48 1019.5
20260905165025 74 337 0.0 0.0 0.00 0.02 0.00 47 1019.3
20260905164025 74 337 0.0 0.0 0.00 0.02 0.00 46 1019.3
20260905163025 75 337 0.0 0.0 0.00 0.02 0.00 46 1019.2
20260905162025 76 337 0.0 0.0 0.00 0.02 0.00 45 1019.1
20260905161025 77 225 0.0 0.0 0.00 0.02 0.00 44 1019.0
20260905160025 78 292 0.0 0.0 0.00 0.02 0.00 43 1018.9
20260905155025 78 315 0.0 0.0 0.00 0.02 0.00 43 1018.9
20260905154025 78 180 0.0 0.0 0.00 0.02 0.00 43 1018.9
20260905153025 78 337 5.0 5.0 0.00 0.02 0.00 43 1019.0
20260905152025 78 337 0.0 0.0 0.00 0.02 0.00 42 1018.9
20260905151025 79 337 0.0 0.0 0.00 0.02 0.00 43 1018.9
20260905150026 79 337 0.0 2.0 0.00 0.02 0.00 43 1018.9
20260905145026 80 315 0.0 0.0 0.00 0.02 0.00 43 1018.9
20260905144026 79 315 0.0 4.0 0.00 0.02 0.00 43 1018.8
20260905143026 79 315 0.0 1.0 0.00 0.02 0.00 44 1018.9
20260905142026 79 337 0.0 0.0 0.00 0.02 0.00 44 1018.9
20260905141026 79 337 4.0 5.0 0.00 0.02 0.00 45 1019.0
20260905140026 77 202 0.0 0.0 0.00 0.02 0.00 46 1019.1
20260905135026 77 337 0.0 3.0 0.00 0.02 0.00 46 1019.2
20260905134026 78 292 0.0 0.0 0.00 0.02 0.00 46 1019.2
20260905133026 78 112 0.0 2.0 0.00 0.02 0.00 46 1019.2
20260905132026 78 337 0.0 0.0 0.00 0.02 0.00 46 1019.1
20260905131026 78 337 0.0 0.0 0.00 0.02 0.00 46 1019.2
20260905130026 78 270 0.0 2.0 0.00 0.02 0.00 46 1019.4
20260905125026 77 292 0.0 0.0 0.00 0.02 0.00 48 1019.4
20260905124026 77 45 0.0 6.0 0.00 0.02 0.00 48 1019.4
20260905123026 76 337 0.0 0.0 0.00 0.02 0.00 48 1019.3
20260905122026 77 292 0.0 0.0 0.00 0.02 0.00 49 1019.4
20260905121026 77 337 1.0 1.0 0.00 0.02 0.00 49 1019.4
20260905120026 75 337 0.0 0.0 0.00 0.02 0.00 52 1019.6
20260905115026 75 337 0.0 0.0 0.00 0.02 0.00 52 1019.6
20260905114026 73 337 0.0 0.0 0.00 0.02 0.00 53 1019.5
20260905113026 73 315 5.0 5.0 0.00 0.02 0.00 53 1019.5
20260905112026 73 315 4.0 4.0 0.00 0.02 0.00 55 1019.6
20260905111026 73 337 0.0 0.0 0.00 0.02 0.00 56 1019.6
20260905110026 72 337 2.0 2.0 0.00 0.02 0.00 59 1019.4
20260905105026 71 337 6.0 6.0 0.00 0.02 0.00 61 1019.7
20260905104026 69 157 0.0 7.0 0.00 0.02 0.00 63 1019.7
20260905103026 68 315 0.0 6.0 0.00 0.02 0.00 63 1019.8
20260905102026 68 315 0.0 0.0 0.00 0.02 0.00 64 1020.0
20260905101026 68 112 0.0 1.0 0.00 0.02 0.00 64 1019.8
20260905100026 68 315 0.0 2.0 0.00 0.02 0.00 64 1019.9
20260905095026 68 315 0.0 3.0 0.00 0.02 0.00 65 1019.9
20260905094026 68 315 0.0 0.0 0.00 0.02 0.00 65 1019.8
20260905093026 68 337 0.0 0.0 0.02 0.02 0.00 65 1019.8
20260905092026 67 315 0.0 2.0 0.02 0.02 0.00 65 1019.8
20260905091026 68 247 0.0 0.0 0.02 0.02 0.00 65 1019.8
20260905090026 67 315 0.0 0.0 0.02 0.02 0.00 66 1019.8
20260905085026 67 337 0.0 0.0 0.02 0.02 0.00 65 1019.7
20260905084026 67 315 0.0 0.0 0.02 0.02 0.00 65 1019.8
20260905083026 66 315 0.0 4.0 0.00 0.00 0.00 63 1020.1
20260905082026 67 0 0.0 0.0 0.00 0.00 0.00 62 1020.1
20260905081026 68 337 0.0 0.0 0.00 0.00 0.00 62 1020.2
20260905080026 68 225 0.0 0.0 0.00 0.00 0.00 62 1020.3
20260905075026 67 315 3.0 3.0 0.00 0.00 0.00 61 1020.3
20260905074026 67 315 3.0 3.0 0.00 0.00 0.00 61 1020.6
20260905073026 67 337 0.0 6.0 0.00 0.00 0.00 60 1020.3
20260905072026 67 337 0.0 0.0 0.00 0.00 0.00 59 1020.5
20260905071026 68 315 0.0 0.0 0.00 0.00 0.00 59 1020.5
20260905070026 68 270 0.0 0.0 0.00 0.00 0.00 59 1019.9
20260905065026 68 315 0.0 0.0 0.00 0.00 0.00 61 1019.9
20260905064026 67 315 0.0 0.0 0.00 0.00 0.00 59 1020.3
20260905063026 67 337 2.0 2.0 0.00 0.00 0.00 58 1020.3
20260905062026 68 337 0.0 5.0 0.00 0.00 0.00 57 1019.7
20260905061026 68 0 5.0 5.0 0.00 0.00 0.00 55 1019.5
20260905060026 69 292 0.0 0.0 0.00 0.00 0.00 55 1019.3
20260905055026 69 337 0.0 0.0 0.00 0.00 0.00 55 1019.2
20260905054026 69 315 0.0 2.0 0.00 0.00 0.00 55 1018.5
20260905053026 69 337 0.0 0.0 0.00 0.00 0.00 57 1018.6
20260905052026 69 337 0.0 0.0 0.00 0.00 0.00 58 1018.0
20260905051026 69 292 0.0 0.0 0.00 0.00 0.00 59 1017.9
20260905050026 69 315 0.0 0.0 0.00 0.00 0.00 61 1017.2
20260905045026 70 292 0.0 0.0 0.00 0.00 0.00 61 1017.2
20260905044026 70 315 0.0 0.0 0.00 0.00 0.00 62 1016.9
20260905043026 70 315 0.0 0.0 0.00 0.00 0.00 62 1016.8
20260905042026 70 315 0.0 0.0 0.00 0.00 0.00 61 1017.5
20260905041026 70 315 0.0 0.0 0.00 0.00 0.00 62 1017.2
20260905040026 70 292 0.0 0.0 0.00 0.00 0.00 62 1016.6
20260905035026 70 337 0.0 0.0 0.00 0.00 0.00 63 1016.8
20260905034027 70 337 0.0 0.0 0.00 0.00 0.00 63 1016.6
20260905033027 70 292 0.0 0.0 0.00 0.00 0.00 63 1016.6
20260905032027 70 292 0.0 0.0 0.00 0.00 0.00 65 1015.7
20260905031027 70 337 0.0 0.0 0.00 0.00 0.00 65 1016.0
20260905030027 70 315 0.0 0.0 0.00 0.00 0.00 64 1015.3
20260905025027 71 337 0.0 0.0 0.00 0.00 0.00 62 1014.3
20260905024027 71 315 0.0 0.0 0.00 0.00 0.00 59 1014.4
20260905023027 71 315 0.0 0.0 0.00 0.00 0.00 59 1013.9
20260905022027 71 315 0.0 0.0 0.00 0.00 0.00 59 1013.9
20260905021027 71 315 0.0 0.0 0.00 0.00 0.00 60 1013.8
20260905020027 71 315 0.0 0.0 0.00 0.00 0.00 60 1013.9
20260905015027 70 315 0.0 0.0 0.00 0.00 0.00 60 1013.7
20260905014027 70 315 0.0 0.0 0.00 0.00 0.00 60 1013.6
20260905013027 70 315 0.0 0.0 0.00 0.00 0.00 60 1013.8
20260905012027 70 315 0.0 0.0 0.00 0.00 0.00 61 1013.8
20260905011027 69 315 0.0 0.0 0.00 0.00 0.00 61 1013.7
20260905010027 69 315 0.0 0.0 0.00 0.00 0.00 61 1013.6
20260905005027 69 315 0.0 0.0 0.00 0.00 0.00 61 1013.5
20260905004027 69 315 0.0 0.0 0.00 0.00 0.00 60 1013.6
20260905003027 69 315 0.0 0.0 0.00 0.00 0.00 60 1013.6
20260905002027 69 315 0.0 0.0 0.00 0.00 0.00 60 1013.5
20260905001027 70 315 0.0 0.0 0.00 0.00 0.00 60 1013.4
20260905000027 69 315 0.0 0.0 0.00 0.00 0.00 59 1013.5
20260904235027 69 315 0.0 0.0 0.00 0.00 0.00 58 1013.4
20260904234027 69 315 0.0 0.0 0.00 0.00 0.00 59 1013.5
20260904233027 69 315 0.0 0.0 0.00 0.00 0.00 58 1013.4
20260904232027 69 315 0.0 0.0 0.00 0.00 0.00 58 1013.2
20260904231027 70 315 0.0 0.0 0.00 0.00 0.00 58 1013.3
20260904230027 70 315 0.0 0.0 0.00 0.00 0.00 57 1013.2
20260904225027 71 315 0.0 0.0 0.00 0.00 0.00 57 1013.1
20260904224027 71 315 0.0 0.0 0.00 0.00 0.00 56 1013.0
20260904223027 72 315 0.0 0.0 0.00 0.00 0.00 56 1012.9
20260904222027 71 315 0.0 0.0 0.00 0.00 0.00 56 1012.9
20260904221027 71 315 0.0 0.0 0.00 0.00 0.00 56 1012.8
20260904220027 71 315 0.0 0.0 0.00 0.00 0.00 56 1013.0